EW9559 Weather Reports


Display with metric or nautical units.
time (UTC)temp
F
wind
direction
speed
MPH
gust
MPH
rain 1hr
in
rain 24hr
in
rain mn
in
humidity
%
barometer
mb
20260831134607 48 247 0.0 1.0 0.00 0.00 0.00 91 1018.2
20260831133032 49 247 0.0 1.0 0.00 0.00 0.00 91 1018.2
20260831130029 49 247 0.0 1.0 0.00 0.00 0.00 90 1018.2
20260831124535 49 247 0.0 1.0 0.00 0.00 0.00 90 1018.3
20260831121529 49 247 0.0 1.0 0.00 0.00 0.00 89 1018.2
20260831120028 50 247 0.0 1.0 0.00 0.00 0.00 88 1018.2
20260831114602 50 247 0.0 1.0 0.00 0.00 0.00 88 1018.3
20260831111526 50 247 0.0 1.0 0.00 0.00 0.00 88 1018.3
20260831104531 51 247 0.0 1.0 0.00 0.00 0.00 88 1018.3
20260831103029 51 247 0.0 1.0 0.00 0.00 0.00 87 1018.4
20260831101529 51 247 0.0 1.0 0.00 0.00 0.00 86 1018.4
20260831094532 52 247 0.0 1.0 0.00 0.00 0.00 85 1018.7
20260831093029 52 247 0.0 2.0 0.00 0.00 0.00 84 1018.8
20260831090146 53 247 0.0 1.0 0.00 0.00 0.00 82 1018.8
20260831083032 54 261 0.0 2.0 0.00 0.00 0.00 81 1019.0
20260831081530 54 270 0.0 1.0 0.00 0.00 0.00 80 1019.1
20260831080030 55 270 0.0 1.0 0.00 0.00 0.00 79 1019.1
20260831074601 55 270 0.0 2.0 0.00 0.00 0.00 79 1019.2
20260831073031 55 256 0.0 2.0 0.00 0.00 0.00 79 1019.2
20260831071530 55 245 0.0 3.0 0.00 0.00 0.00 79 1019.3
20260831070026 55 247 0.0 2.0 0.00 0.00 0.00 79 1019.4
20260831064532 56 247 0.0 2.0 0.00 0.00 0.00 78 1019.3
20260831063031 56 247 0.0 1.0 0.00 0.00 0.00 76 1019.5
20260831061603 57 247 0.0 1.0 0.00 0.00 0.00 76 1019.6
20260831060032 57 247 0.0 1.0 0.00 0.00 0.00 76 1019.5
20260831054530 57 247 0.0 1.0 0.00 0.00 0.00 76 1019.6
20260831053031 57 247 0.0 1.0 0.00 0.00 0.00 73 1019.8
20260831051529 58 247 0.0 1.0 0.00 0.00 0.00 72 1019.7
20260831050030 59 247 0.0 2.0 0.00 0.00 0.00 70 1019.7
20260831044528 60 247 0.0 1.0 0.00 0.00 0.00 67 1019.7
20260831043030 61 247 0.0 2.0 0.00 0.00 0.00 65 1019.7
20260831041607 62 247 0.0 2.0 0.00 0.00 0.00 64 1019.7
20260831040031 63 247 0.0 2.0 0.00 0.00 0.00 62 1019.6
20260831033029 64 261 0.0 6.0 0.00 0.00 0.00 60 1019.2
20260831031531 64 269 0.0 6.0 0.00 0.00 0.00 59 1019.1
20260831030103 65 267 0.0 4.0 0.00 0.00 0.00 58 1019.1
20260831024602 65 261 0.0 6.0 0.00 0.00 0.00 56 1019.1
20260831023102 66 260 0.0 5.0 0.00 0.00 0.00 54 1019.2
20260831020104 67 252 0.0 6.0 0.00 0.00 0.00 51 1019.1
20260831013029 69 266 0.0 7.0 0.00 0.00 0.00 49 1019.2
20260831011530 69 263 0.0 4.0 0.00 0.00 0.00 48 1019.3
20260831010144 70 263 0.0 5.0 0.00 0.00 0.00 47 1019.4
20260831004530 70 266 0.0 5.0 0.00 0.00 0.00 45 1019.4
20260831003029 71 261 0.0 6.0 0.00 0.00 0.00 44 1019.4
20260831001529 72 274 0.0 5.0 0.00 0.00 0.00 42 1019.4
20260831000032 73 268 0.0 6.0 0.00 0.00 0.00 42 1019.5
20260830234531 74 267 0.0 5.0 0.00 0.00 0.00 42 1019.6
20260830233030 73 267 0.0 4.0 0.00 0.00 0.00 43 1019.7
20260830231646 73 259 1.0 6.0 0.00 0.00 0.00 42 1019.9
20260830230030 72 269 0.0 7.0 0.00 0.00 0.00 43 1020.0
20260830224532 72 274 0.0 6.0 0.00 0.00 0.00 44 1020.2
20260830223030 72 278 1.0 6.0 0.00 0.00 0.00 45 1020.4
20260830221605 72 264 0.0 4.0 0.00 0.00 0.00 46 1020.7
20260830220147 71 267 0.0 5.0 0.00 0.00 0.00 48 1020.8
20260830214530 70 266 0.0 5.0 0.00 0.00 0.00 49 1021.1
20260830213029 69 274 0.0 6.0 0.00 0.00 0.00 50 1021.2
20260830211532 69 278 0.0 6.0 0.00 0.00 0.00 49 1021.3
20260830210106 69 280 0.0 7.0 0.00 0.00 0.00 49 1021.4
20260830204532 69 277 0.0 9.0 0.00 0.00 0.00 50 1021.6
20260830203030 69 273 1.0 7.0 0.00 0.00 0.00 51 1022.0
20260830201530 69 263 0.0 5.0 0.00 0.00 0.00 52 1022.1
20260830194529 68 258 1.0 8.0 0.00 0.00 0.00 52 1022.4
20260830193031 68 260 1.0 7.0 0.00 0.00 0.00 52 1022.5
20260830191529 67 264 1.0 6.0 0.00 0.00 0.00 55 1022.7
20260830190112 66 263 0.0 4.0 0.00 0.00 0.00 55 1022.8
20260830184603 67 269 0.0 5.0 0.00 0.00 0.00 55 1023.0
20260830183031 66 265 0.0 6.0 0.00 0.00 0.00 57 1023.1
20260830181528 65 259 1.0 7.0 0.00 0.00 0.00 59 1023.2
20260830180029 63 262 1.0 7.0 0.00 0.00 0.00 59 1023.2
20260830174529 63 267 1.0 7.0 0.00 0.00 0.00 61 1023.2
20260830173132 62 271 0.0 4.0 0.00 0.00 0.00 64 1023.3
20260830171530 62 272 0.0 6.0 0.00 0.00 0.00 64 1023.3
20260830170029 61 265 0.0 4.0 0.00 0.00 0.00 67 1023.4
20260830164605 61 252 1.0 6.0 0.00 0.00 0.00 69 1023.7
20260830163031 60 258 0.0 6.0 0.00 0.00 0.00 70 1023.7
20260830161529 59 261 0.0 5.0 0.00 0.00 0.00 73 1023.8
20260830160031 58 265 0.0 4.0 0.00 0.00 0.00 75 1024.1
20260830154533 57 263 0.0 5.0 0.00 0.00 0.00 78 1024.2
20260830153032 56 258 1.0 4.0 0.00 0.00 0.00 80 1024.2
20260830151533 54 261 0.0 5.0 0.00 0.00 0.00 82 1024.3
20260830150028 54 273 0.0 4.0 0.00 0.00 0.00 83 1024.3
20260830144528 54 268 0.0 4.0 0.00 0.00 0.00 83 1024.3
20260830143031 53 266 0.0 6.0 0.00 0.00 0.00 84 1024.3
20260830140031 51 258 0.0 3.0 0.00 0.00 0.00 87 1024.0